Location: Ash Observatory
(39.7321°N, 75.2004°W)
Time: 20:59:50
(UTC-04:00)

ISS - Visible Passes

Search period start: 21 May 2019 00:00
Search period end: 31 May 2019 00:00
Orbit: 407 x 410 km, 51.6° (Epoch: 22 May)

Date Brightness Start Highest point End Pass type
(mag) Time Alt. Az. Time Alt. Az. Time Alt. Az.
21 May -0.3 00:39:19 10° NNW 00:40:26 11° N 00:41:33 10° NNE visible
21 May -0.7 22:09:18 10° WNW 22:11:34 17° NNW 22:13:51 10° NNE visible
21 May -0.3 23:48:26 10° NNW 23:49:13 11° N 23:50:00 10° NNE visible
22 May -0.5 01:24:24 10° NNW 01:25:00 13° NNW 01:25:00 13° NNW visible
22 May -1.2 21:17:45 10° W 21:20:29 23° NNW 21:23:12 10° NNE visible
22 May -0.4 22:57:02 10° NNW 22:58:00 11° N 22:58:58 10° NNE visible
23 May -0.6 00:33:46 10° NNW 00:35:25 14° N 00:35:25 14° N visible
23 May -0.6 22:05:18 10° NW 22:06:46 12° N 22:08:14 10° NNE visible
23 May -0.6 23:43:08 10° NNW 23:44:30 12° N 23:45:53 10° NE visible
24 May -0.8 21:13:34 10° NW 21:15:34 15° NNW 21:17:34 10° NNE visible
24 May -0.5 22:52:22 10° NNW 22:53:16 11° N 22:54:10 10° NNE visible
25 May -0.7 00:28:09 10° NNW 00:29:16 16° NNW 00:29:16 16° NNW visible
25 May -0.5 22:01:13 10° NNW 22:02:00 11° N 22:02:48 10° NNE visible
25 May -1.1 23:37:28 10° NNW 23:39:41 16° NNE 23:39:55 16° NNE visible
26 May -0.6 21:09:33 10° NNW 21:10:45 11° N 21:11:55 10° NNE visible
26 May -0.8 22:46:48 10° NNW 22:48:28 13° NNE 22:50:07 10° NE visible
27 May -0.8 00:22:33 10° NW 00:23:17 15° NW 00:23:17 15° NW visible
27 May -0.7 21:56:05 10° NNW 21:57:12 11° N 21:58:19 10° NNE visible
27 May -1.6 23:31:47 10° NNW 23:33:59 24° N 23:33:59 24° N visible
28 May -0.7 21:05:08 10° NNW 21:05:54 11° N 21:06:40 10° NNE visible
28 May -1.5 22:41:04 10° NNW 22:43:30 19° NNE 22:44:41 16° NE visible
29 May -0.7 00:17:06 10° NW 00:17:24 12° NW 00:17:24 12° NW visible
29 May -1.0 21:50:21 10° NNW 21:52:17 14° NNE 21:54:14 10° NE visible
29 May -1.9 23:26:10 10° NW 23:28:07 31° NNW 23:28:07 31° NNW visible
30 May -1.0 20:59:38 10° NNW 21:01:01 12° N 21:02:24 10° NE visible
30 May -2.5 22:35:20 10° NW 22:38:22 33° NNE 22:38:52 31° NE visible
